Location: Golden Pond Observatory
(36.7773°N, 88.0631°W)
Time: 21:05:49
(UTC-05:00)

Hubble Space Telescope - Visible Passes

Search period start: 24 March 2019 00:00
Search period end: 03 April 2019 00:00
Orbit: 537 x 540 km, 28.5° (Epoch: 24 March)

Date Brightness Start Highest point End Pass type
(mag) Time Alt. Az. Time Alt. Az. Time Alt. Az.
24 Mar 2.9 20:00:07 10° S 20:02:04 13° SSE 20:03:28 11° SE visible
25 Mar 2.8 19:49:00 10° SSW 19:51:28 15° SSE 19:53:49 10° SE visible
25 Mar 3.4 21:28:40 10° SW 21:29:10 12° SW 21:29:10 12° SW visible
26 Mar 2.6 19:38:06 10° SSW 19:40:52 18° SSE 19:43:40 10° ESE visible
26 Mar 3.0 21:18:05 10° SW 21:19:28 17° SW 21:19:28 17° SW visible
27 Mar 2.6 21:07:31 10° WSW 21:09:41 22° SSW 21:09:41 22° SSW visible
28 Mar 2.3 20:56:59 10° WSW 20:59:53 24° SSW 20:59:53 24° SSW visible
29 Mar 2.2 20:46:29 10° WSW 20:49:51 24° S 20:50:02 24° S visible
30 Mar 2.3 20:36:01 10° WSW 20:39:17 23° S 20:40:11 21° SSE visible
31 Mar 2.5 20:25:35 10° WSW 20:28:42 21° S 20:30:20 17° SSE visible
01 Apr 2.7 20:15:12 10° WSW 20:18:07 19° SSW 20:20:30 12° SSE visible
02 Apr 2.9 20:04:54 10° SW 20:07:32 16° SSW 20:10:10 10° SSE visible
